Location: STAR School
(35.3054°N, 111.2976°W)
Time: 06:22:57
(UTC-07:00)

Hubble Space Telescope - Visible Passes

Search period start: 23 February 2019 00:00
Search period end: 05 March 2019 00:00
Orbit: 537 x 540 km, 28.5° (Epoch: 22 February)

Date Brightness Start Highest point End Pass type
(mag) Time Alt. Az. Time Alt. Az. Time Alt. Az.
02 Mar 3.5 06:21:47 10° S 06:22:57 11° SSE 06:24:07 10° SE visible
03 Mar 3.3 06:10:18 10° S 06:12:22 14° SSE 06:14:27 10° SE visible
04 Mar 3.2 05:59:12 10° SSW 06:01:47 16° SSE 06:04:23 10° ESE visible
